BAW106 OMDB-EGLL

Flight info

Callsign BAW106
Flight time N/A
Altitude 35000
Route ANVIX L223 TARDI N629 BOTAM Y855 LAKLU/N0492F340 Q204 NALKI G652 TOKRA DCT ALROK DCT BOSOB/N0490F360 DCT ITRUX Y511 PMA Z712 WEJ L677 GESON Q777 RASDA DCT OTHON/N0475F380 DCT VAXOS DCT RDS UL609 MES DCT FSK DCT DISOR DCT LONTA UL608 DOLEV DCT SABAD DCT KUBUD DCT SOTOV DCT XEBIX DCT USUDO DCT LIRSU DCT DENUT L608 COA/N0389F180 L179 SASKI L608 LOGAN
Aircraft B772/H-SDE2E3FGHIJ5LORVWXY/LB1D1

Departure

Time 2026-04-23 10:23
Airport Dubai International Airport (OMDB)

Arrival

Time N/A
Airport London Heathrow Airport (EGLL)
Time Latitude Longitude Altitude Speed Heading
2026-04-23 09:32 25.24799 55.36436 33 ft 0 kts 211°
2026-04-23 10:05 25.24806 55.36441 33 ft 2 kts 211°
2026-04-23 10:05 25.24819 55.36449 33 ft 2 kts 211°
2026-04-23 10:06 25.24831 55.36458 33 ft 2 kts 211°
2026-04-23 10:06 25.24844 55.36467 33 ft 2 kts 212°
2026-04-23 10:06 25.24855 55.36477 33 ft 2 kts 233°
2026-04-23 10:06 25.24863 55.36491 35 ft 2 kts 250°
2026-04-23 10:07 25.24865 55.36507 36 ft 2 kts 268°
2026-04-23 10:07 25.24864 55.36522 38 ft 2 kts 286°
2026-04-23 10:07 25.24859 55.36535 39 ft 1 kts 301°
2026-04-23 10:07 25.24858 55.36537 39 ft 0 kts 302°
2026-04-23 10:12 25.24868 55.36520 38 ft 5 kts 302°
2026-04-23 10:12 25.24900 55.36461 35 ft 13 kts 301°
2026-04-23 10:12 25.24964 55.36346 32 ft 20 kts 301°
2026-04-23 10:12 25.25036 55.36216 35 ft 17 kts 301°
2026-04-23 10:13 25.25097 55.36106 35 ft 17 kts 301°
2026-04-23 10:13 25.25170 55.35974 33 ft 21 kts 301°
2026-04-23 10:13 25.25240 55.35847 36 ft 17 kts 301°
2026-04-23 10:13 25.25302 55.35733 34 ft 17 kts 301°
2026-04-23 10:14 25.25368 55.35615 32 ft 17 kts 301°
2026-04-23 10:14 25.25432 55.35502 32 ft 16 kts 302°
2026-04-23 10:14 25.25492 55.35393 32 ft 16 kts 301°
2026-04-23 10:14 25.25546 55.35294 33 ft 14 kts 301°
2026-04-23 10:15 25.25599 55.35198 34 ft 12 kts 301°
2026-04-23 10:15 25.25650 55.35152 35 ft 9 kts
2026-04-23 10:15 25.25710 55.35181 35 ft 10 kts 30°
2026-04-23 10:15 25.25730 55.35194 36 ft 3 kts 31°
2026-04-23 10:16 25.25773 55.35223 36 ft 11 kts 31°
2026-04-23 10:16 25.25869 55.35286 35 ft 18 kts 31°
2026-04-23 10:16 25.25973 55.35384 36 ft 19 kts 59°
2026-04-23 10:16 25.25987 55.35521 38 ft 17 kts 106°
2026-04-23 10:17 25.25932 55.35636 38 ft 17 kts 121°
2026-04-23 10:17 25.25868 55.35750 40 ft 17 kts 121°
2026-04-23 10:17 25.25807 55.35860 42 ft 16 kts 121°
2026-04-23 10:17 25.25746 55.35969 42 ft 18 kts 121°
2026-04-23 10:18 25.25667 55.36113 44 ft 23 kts 121°
2026-04-23 10:18 25.25581 55.36268 45 ft 23 kts 120°
2026-04-23 10:18 25.25498 55.36419 45 ft 22 kts 121°
2026-04-23 10:18 25.25417 55.36563 46 ft 21 kts 121°
2026-04-23 10:19 25.25344 55.36695 48 ft 19 kts 121°
2026-04-23 10:19 25.25277 55.36818 49 ft 18 kts 121°
2026-04-23 10:19 25.25213 55.36931 50 ft 16 kts 122°
2026-04-23 10:19 25.25153 55.37040 51 ft 17 kts 121°
2026-04-23 10:20 25.25083 55.37165 51 ft 21 kts 121°
2026-04-23 10:20 25.25005 55.37308 51 ft 22 kts 121°
2026-04-23 10:20 25.24927 55.37448 54 ft 20 kts 121°
2026-04-23 10:20 25.24857 55.37574 55 ft 18 kts 121°
2026-04-23 10:21 25.24790 55.37695 55 ft 18 kts 121°
2026-04-23 10:21 25.24738 55.37790 55 ft 12 kts 121°
2026-04-23 10:21 25.24694 55.37869 55 ft 11 kts 121°
2026-04-23 10:21 25.24661 55.37935 57 ft 5 kts 94°
2026-04-23 10:22 25.24685 55.37965 57 ft 5 kts 30°
2026-04-23 10:22 25.24738 55.37999 58 ft 12 kts 30°
2026-04-23 10:22 25.24796 55.38025 58 ft 7 kts 338°
2026-04-23 10:22 25.24836 55.37974 57 ft 11 kts 301°
2026-04-23 10:23 25.24980 55.37719 55 ft 74 kts 302°
2026-04-23 10:23 25.25371 55.37015 51 ft 137 kts 301°
2026-04-23 10:23 25.25958 55.35964 136 ft 176 kts 303°
2026-04-23 10:23 25.26592 55.34829 682 ft 179 kts 302°
2026-04-23 10:24 25.27228 55.33672 1390 ft 178 kts 302°
2026-04-23 10:24 25.27886 55.32464 1758 ft 192 kts 302°
2026-04-23 10:24 25.28605 55.31165 2276 ft 198 kts 302°
2026-04-23 10:24 25.29035 55.29762 2886 ft 199 kts 276°
2026-04-23 10:25 25.28853 55.28277 3535 ft 196 kts 254°
2026-04-23 10:25 25.28387 55.26857 3938 ft 205 kts 250°
2026-04-23 10:25 25.27813 55.25375 4006 ft 207 kts 247°
2026-04-23 10:25 25.27190 55.23898 4231 ft 217 kts 246°
2026-04-23 10:26 25.26579 55.22461 5069 ft 205 kts 246°
2026-04-23 10:26 25.25980 55.21051 5644 ft 205 kts 245°
2026-04-23 10:26 25.25351 55.19567 5920 ft 223 kts 245°
2026-04-23 10:26 25.24547 55.18055 6331 ft 237 kts 227°
2026-04-23 10:27 25.23195 55.17033 7004 ft 241 kts 201°
2026-04-23 10:27 25.21491 55.16750 7449 ft 255 kts 180°
2026-04-23 10:27 25.19720 55.17005 8079 ft 261 kts 162°
2026-04-23 10:27 25.18184 55.18057 8659 ft 270 kts 136°
2026-04-23 10:28 25.17086 55.19836 8990 ft 290 kts 120°
2026-04-23 10:28 25.16171 55.21845 9564 ft 296 kts 119°
2026-04-23 10:28 25.15246 55.23850 10243 ft 298 kts 120°
2026-04-23 10:28 25.14285 55.25877 10929 ft 301 kts 121°
2026-04-23 10:29 25.13304 55.27922 11581 ft 303 kts 121°
2026-04-23 10:29 25.12326 55.29957 12242 ft 306 kts 121°
2026-04-23 10:29 25.11323 55.32040 12938 ft 308 kts 121°
2026-04-23 10:29 25.10323 55.34145 13534 ft 313 kts 118°
2026-04-23 10:30 25.09415 55.36357 14053 ft 321 kts 117°
2026-04-23 10:30 25.08520 55.38599 14635 ft 326 kts 117°
2026-04-23 10:30 25.07587 55.40894 15234 ft 331 kts 117°
2026-04-23 10:30 25.06640 55.43248 15728 ft 340 kts 116°
2026-04-23 10:31 25.05701 55.45703 15978 ft 357 kts 115°
2026-04-23 10:31 25.04712 55.48293 16175 ft 375 kts 115°
2026-04-23 10:31 25.03672 55.50998 16434 ft 392 kts 115°
2026-04-23 10:31 25.02587 55.53818 16719 ft 408 kts 115°
2026-04-23 10:32 25.01295 55.56663 16928 ft 423 kts 122°
2026-04-23 10:32 24.99783 55.59489 17255 ft 435 kts 123°
2026-04-23 10:32 24.98030 55.62162 17841 ft 436 kts 133°
2026-04-23 10:32 24.95832 55.64487 18499 ft 435 kts 144°
2026-04-23 10:33 24.93341 55.66311 19168 ft 433 kts 155°
2026-04-23 10:33 24.90566 55.67641 19813 ft 433 kts 165°
2026-04-23 10:33 24.87666 55.68400 20421 ft 432 kts 175°
2026-04-23 10:33 24.84674 55.68589 21053 ft 432 kts 185°
2026-04-23 10:34 24.81681 55.68194 21638 ft 432 kts 195°
2026-04-23 10:34 24.78792 55.67220 22234 ft 431 kts 205°
2026-04-23 10:34 24.76136 55.65722 22802 ft 432 kts 215°
2026-04-23 10:34 24.73755 55.63735 23343 ft 434 kts 224°
2026-04-23 10:35 24.71699 55.61282 23868 ft 436 kts 234°
2026-04-23 10:35 24.70048 55.58492 24433 ft 437 kts 243°
2026-04-23 10:35 24.68811 55.55487 24986 ft 438 kts 251°
2026-04-23 10:35 24.67937 55.52261 25541 ft 439 kts 256°
2026-04-23 10:36 24.67165 55.49033 26061 ft 442 kts 257°
2026-04-23 10:36 24.66383 55.45742 26565 ft 445 kts 257°
2026-04-23 10:36 24.65602 55.42463 27038 ft 448 kts 257°
2026-04-23 10:36 24.64817 55.39171 27551 ft 450 kts 257°
2026-04-23 10:37 24.64018 55.35818 28050 ft 452 kts 257°
2026-04-23 10:37 24.63222 55.32487 28523 ft 454 kts 257°
2026-04-23 10:37 24.62426 55.29154 29000 ft 456 kts 258°
2026-04-23 10:37 24.61613 55.25756 29436 ft 459 kts 257°
2026-04-23 10:38 24.60809 55.22398 29837 ft 462 kts 258°
2026-04-23 10:38 24.59991 55.18988 30315 ft 464 kts 258°
2026-04-23 10:38 24.59167 55.15555 30950 ft 462 kts 258°
2026-04-23 10:38 24.58354 55.12175 31731 ft 456 kts 258°
2026-04-23 10:39 24.57551 55.08841 32496 ft 450 kts 258°
2026-04-23 10:39 24.56765 55.05580 33187 ft 446 kts 258°
2026-04-23 10:39 24.55969 55.02282 33791 ft 443 kts 258°
2026-04-23 10:39 24.55182 54.99022 34347 ft 440 kts 258°
2026-04-23 10:40 24.54412 54.95835 34779 ft 439 kts 258°
2026-04-23 10:40 24.53627 54.92588 34822 ft 442 kts 258°
2026-04-23 10:40 24.52059 54.86120 34819 ft 435 kts 258°
2026-04-23 10:41 24.50500 54.79694 34817 ft 437 kts 258°
2026-04-23 10:41 24.48932 54.73246 34811 ft 436 kts 258°
2026-04-23 10:42 24.47371 54.66837 34811 ft 435 kts 258°
2026-04-23 10:42 24.45810 54.60444 34808 ft 436 kts 258°
2026-04-23 10:43 24.44247 54.54054 34805 ft 436 kts 258°
2026-04-23 10:43 24.42676 54.47643 34805 ft 435 kts 258°
2026-04-23 10:44 24.41099 54.41220 34804 ft 437 kts 258°
2026-04-23 10:44 24.39529 54.34839 34810 ft 436 kts 258°
2026-04-23 10:45 24.37951 54.28439 34826 ft 435 kts 258°
2026-04-23 10:45 24.36368 54.22032 34826 ft 435 kts 258°
2026-04-23 10:46 24.34795 54.15677 34826 ft 433 kts 258°
2026-04-23 10:46 24.33217 54.09312 34827 ft 436 kts 258°
2026-04-23 10:47 24.31626 54.02909 34826 ft 435 kts 258°
2026-04-23 10:47 24.30040 53.96536 34822 ft 435 kts 258°
2026-04-23 10:48 24.28451 53.90167 34830 ft 434 kts 258°
2026-04-23 10:48 24.26851 53.83762 34829 ft 436 kts 258°
2026-04-23 10:49 24.25248 53.77362 34827 ft 435 kts 258°
2026-04-23 10:49 24.23647 53.70981 34830 ft 435 kts 258°
2026-04-23 10:50 24.22051 53.64630 34822 ft 433 kts 258°
2026-04-23 10:50 24.20446 53.58253 34820 ft 436 kts 258°
2026-04-23 10:51 24.18838 53.51880 34819 ft 433 kts 258°
2026-04-23 10:51 24.17237 53.45548 34814 ft 434 kts 258°
2026-04-23 10:52 24.15624 53.39178 34812 ft 435 kts 258°
2026-04-23 10:52 24.14011 53.32823 34830 ft 434 kts 257°
2026-04-23 10:53 24.12389 53.26437 34832 ft 436 kts 257°
2026-04-23 10:53 24.10772 53.20094 34831 ft 434 kts 257°
2026-04-23 10:54 24.09150 53.13734 34832 ft 437 kts 257°
2026-04-23 10:54 24.07517 53.07345 34827 ft 435 kts 257°
2026-04-23 10:55 24.05891 53.00999 34835 ft 435 kts 257°
2026-04-23 10:55 24.04259 52.94637 34833 ft 436 kts 257°